Time,TemperatureF,DewpointF,PressureIn,WindDirection,WindDirectionDegrees,WindSpeedMPH,WindSpeedGustMPH,Humidity,HourlyPrecipIn,Conditions,Clouds,dailyrainin,SoftwareType,DateUTC
2016-02-07 00:04:00,29.0,-99.9,-100.00,West,265,5.0,-999.0,-999,-99.99,,,-99.99,,2016-02-07 05:04:00,
2016-02-07 00:14:00,29.0,-99.9,-100.00,West,265,5.0,17.0,-999,-99.99,,,-99.99,,2016-02-07 05:14:00,
2016-02-07 00:23:00,29.0,-99.9,-100.00,West,265,5.0,-999.0,-999,-99.99,,,-99.99,,2016-02-07 05:23:00,
2016-02-07 00:34:00,29.0,-99.9,-100.00,West,265,5.0,17.0,-999,-99.99,,,-99.99,,2016-02-07 05:34:00,
2016-02-07 00:40:00,29.0,-99.9,-100.00,West,266,7.0,17.0,-999,-99.99,,,-99.99,,2016-02-07 05:40:00,
2016-02-07 01:04:00,29.0,-99.9,-100.00,West,266,7.0,17.0,-999,-99.99,,,-99.99,,2016-02-07 06:04:00,
2016-02-07 01:24:00,29.0,-99.9,-100.00,West,266,7.0,17.0,-999,-99.99,,,-99.99,,2016-02-07 06:24:00,
2016-02-07 01:40:00,28.0,-99.9,-100.00,West,266,4.0,17.0,-999,-99.99,,,-99.99,,2016-02-07 06:40:00,
2016-02-07 02:04:00,28.0,-99.9,-100.00,West,266,4.0,17.0,-999,-99.99,,,-99.99,,2016-02-07 07:04:00,
2016-02-07 02:13:00,28.0,-99.9,-100.00,West,266,4.0,17.0,-999,-99.99,,,-99.99,,2016-02-07 07:13:00,
2016-02-07 02:24:00,28.0,-99.9,-100.00,West,266,4.0,17.0,-999,-99.99,,,-99.99,,2016-02-07 07:24:00,
2016-02-07 02:34:00,28.0,-99.9,-100.00,West,266,4.0,17.0,-999,-99.99,,,-99.99,,2016-02-07 07:34:00,
2016-02-07 03:04:00,28.0,-99.9,-100.00,West,261,8.0,17.0,-999,-99.99,,,-99.99,,2016-02-07 08:04:00,
2016-02-07 03:13:00,28.0,-99.9,-100.00,West,261,8.0,17.0,-999,-99.99,,,-99.99,,2016-02-07 08:13:00,
2016-02-07 03:24:00,28.0,-99.9,-100.00,West,261,8.0,17.0,-999,-99.99,,,-99.99,,2016-02-07 08:24:00,
2016-02-07 03:34:00,28.0,-99.9,-100.00,West,261,8.0,17.0,-999,-99.99,,,-99.99,,2016-02-07 08:34:00,
2016-02-07 03:40:00,28.0,-99.9,-100.00,West,265,8.0,18.0,-999,-99.99,,,-99.99,,2016-02-07 08:40:00,
2016-02-07 04:04:00,28.0,-99.9,-100.00,West,265,8.0,18.0,-999,-99.99,,,-99.99,,2016-02-07 09:04:00,
2016-02-07 04:13:00,28.0,-99.9,-100.00,West,265,8.0,18.0,-999,-99.99,,,-99.99,,2016-02-07 09:13:00,
2016-02-07 04:24:00,28.0,-99.9,-100.00,West,265,8.0,18.0,-999,-99.99,,,-99.99,,2016-02-07 09:24:00,
2016-02-07 04:34:00,28.0,-99.9,-100.00,West,265,8.0,18.0,-999,-99.99,,,-99.99,,2016-02-07 09:34:00,
2016-02-07 04:40:00,27.0,-99.9,-100.00,WSW,255,10.0,18.0,-999,-99.99,,,-99.99,,2016-02-07 09:40:00,
2016-02-07 05:04:00,27.0,-99.9,-100.00,WSW,255,10.0,18.0,-999,-99.99,,,-99.99,,2016-02-07 10:04:00,
2016-02-07 05:13:00,27.0,-99.9,-100.00,WSW,255,10.0,18.0,-999,-99.99,,,-99.99,,2016-02-07 10:13:00,
2016-02-07 05:24:00,27.0,-99.9,-100.00,WSW,255,10.0,18.0,-999,-99.99,,,-99.99,,2016-02-07 10:24:00,
2016-02-07 05:34:00,27.0,-99.9,-100.00,WSW,255,10.0,18.0,-999,-99.99,,,-99.99,,2016-02-07 10:34:00,
2016-02-07 05:40:00,26.0,-99.9,-100.00,WSW,257,7.0,19.0,-999,-99.99,,,-99.99,,2016-02-07 10:40:00,
2016-02-07 06:04:00,26.0,-99.9,-100.00,WSW,257,7.0,19.0,-999,-99.99,,,-99.99,,2016-02-07 11:04:00,
2016-02-07 06:13:00,26.0,-99.9,-100.00,WSW,257,7.0,19.0,-999,-99.99,,,-99.99,,2016-02-07 11:13:00,
2016-02-07 06:24:00,26.0,-99.9,-100.00,WSW,257,7.0,19.0,-999,-99.99,,,-99.99,,2016-02-07 11:24:00,
2016-02-07 06:34:00,26.0,-99.9,-100.00,WSW,257,7.0,19.0,-999,-99.99,,,-99.99,,2016-02-07 11:34:00,
2016-02-07 06:40:00,26.0,-99.9,-100.00,WSW,258,6.0,18.0,-999,-99.99,,,-99.99,,2016-02-07 11:40:00,
2016-02-07 07:24:00,26.0,-99.9,-100.00,WSW,258,6.0,18.0,-999,-99.99,,,-99.99,,2016-02-07 12:24:00,
2016-02-07 07:34:00,26.0,-99.9,-100.00,WSW,258,6.0,18.0,-999,-99.99,,,-99.99,,2016-02-07 12:34:00,
2016-02-07 07:40:00,27.0,-99.9,-100.00,West,262,10.0,19.0,-999,-99.99,,,-99.99,,2016-02-07 12:40:00,
2016-02-07 08:07:00,27.0,-99.9,-100.00,West,262,10.0,19.0,-999,-99.99,,,-99.99,,2016-02-07 13:07:00,
2016-02-07 08:13:00,27.0,-99.9,-100.00,West,262,10.0,19.0,-999,-99.99,,,-99.99,,2016-02-07 13:13:00,
2016-02-07 08:24:00,27.0,-99.9,-100.00,West,262,10.0,19.0,-999,-99.99,,,-99.99,,2016-02-07 13:24:00,
2016-02-07 08:34:00,27.0,-99.9,-100.00,West,262,10.0,19.0,-999,-99.99,,,-99.99,,2016-02-07 13:34:00,
2016-02-07 08:40:00,23.0,-99.9,-100.00,West,279,4.0,17.0,-999,-99.99,,,-99.99,,2016-02-07 13:40:00,
2016-02-07 09:04:00,23.0,-99.9,-100.00,West,279,4.0,17.0,-999,-99.99,,,-99.99,,2016-02-07 14:04:00,
2016-02-07 09:13:00,23.0,-99.9,-100.00,West,279,4.0,17.0,-999,-99.99,,,-99.99,,2016-02-07 14:13:00,
2016-02-07 09:24:00,23.0,-99.9,-100.00,West,279,4.0,17.0,-999,-99.99,,,-99.99,,2016-02-07 14:24:00,
2016-02-07 09:34:00,23.0,-99.9,-100.00,West,279,4.0,17.0,-999,-99.99,,,-99.99,,2016-02-07 14:34:00,
2016-02-07 10:04:00,23.0,-99.9,-100.00,NW,305,7.0,19.0,-999,-99.99,,,-99.99,,2016-02-07 15:04:00,
2016-02-07 10:13:00,23.0,-99.9,-100.00,NW,305,7.0,19.0,-999,-99.99,,,-99.99,,2016-02-07 15:13:00,
2016-02-07 10:34:00,23.0,-99.9,-100.00,NW,305,7.0,19.0,-999,-99.99,,,-99.99,,2016-02-07 15:34:00,
2016-02-07 11:04:00,22.0,-99.9,-100.00,NW,324,6.0,19.0,-999,-99.99,,,-99.99,,2016-02-07 16:04:00,
2016-02-07 11:14:00,22.0,-99.9,-100.00,NW,324,6.0,19.0,-999,-99.99,,,-99.99,,2016-02-07 16:14:00,
2016-02-07 11:24:00,22.0,-99.9,-100.00,NW,324,6.0,19.0,-999,-99.99,,,-99.99,,2016-02-07 16:24:00,
2016-02-07 11:34:00,22.0,-99.9,-100.00,NW,324,6.0,19.0,-999,-99.99,,,-99.99,,2016-02-07 16:34:00,
2016-02-07 11:40:00,23.0,-99.9,-100.00,NW,317,3.0,14.0,-999,-99.99,,,-99.99,,2016-02-07 16:40:00,
2016-02-07 12:03:00,23.0,-99.9,-100.00,NW,317,3.0,14.0,-999,-99.99,,,-99.99,,2016-02-07 17:03:00,
2016-02-07 12:13:00,23.0,-99.9,-100.00,NW,317,3.0,14.0,-999,-99.99,,,-99.99,,2016-02-07 17:13:00,
2016-02-07 12:23:00,23.0,-99.9,-100.00,NW,317,3.0,14.0,-999,-99.99,,,-99.99,,2016-02-07 17:23:00,
2016-02-07 12:40:00,23.0,-99.9,-100.00,NW,319,0.0,14.0,-999,-99.99,,,-99.99,,2016-02-07 17:40:00,
2016-02-07 13:13:00,23.0,-99.9,-100.00,NW,319,0.0,14.0,-999,-99.99,,,-99.99,,2016-02-07 18:13:00,
2016-02-07 13:40:00,25.0,-99.9,-100.00,NW,325,6.0,14.0,-999,-99.99,,,-99.99,,2016-02-07 18:40:00,
2016-02-07 13:57:00,25.0,-99.9,-100.00,NW,325,6.0,14.0,-999,-99.99,,,-99.99,,2016-02-07 18:57:00,
2016-02-07 14:04:00,25.0,-99.9,-100.00,NW,325,6.0,14.0,-999,-99.99,,,-99.99,,2016-02-07 19:04:00,
2016-02-07 14:14:00,25.0,-99.9,-100.00,NW,325,6.0,14.0,-999,-99.99,,,-99.99,,2016-02-07 19:14:00,
2016-02-07 14:24:00,25.0,-99.9,-100.00,NW,325,6.0,14.0,-999,-99.99,,,-99.99,,2016-02-07 19:24:00,
2016-02-07 14:34:00,25.0,-99.9,-100.00,NW,325,6.0,14.0,-999,-99.99,,,-99.99,,2016-02-07 19:34:00,
2016-02-07 14:40:00,26.0,-99.9,-100.00,SSE,165,6.0,12.0,-999,-99.99,,,-99.99,,2016-02-07 19:40:00,
2016-02-07 15:05:00,26.0,-99.9,-100.00,SSE,165,6.0,12.0,-999,-99.99,,,-99.99,,2016-02-07 20:05:00,
2016-02-07 15:13:00,26.0,-99.9,-100.00,SSE,165,6.0,12.0,-999,-99.99,,,-99.99,,2016-02-07 20:13:00,
2016-02-07 15:24:00,26.0,-99.9,-100.00,SSE,165,6.0,12.0,-999,-99.99,,,-99.99,,2016-02-07 20:24:00,
2016-02-07 15:34:00,26.0,-99.9,-100.00,SSE,165,6.0,12.0,-999,-99.99,,,-99.99,,2016-02-07 20:34:00,
2016-02-07 15:40:00,26.0,-99.9,-100.00,North,-9999,0.0,0.0,-999,-99.99,,,-99.99,,2016-02-07 20:40:00,
2016-02-07 16:04:00,26.0,-99.9,-100.00,North,-9999,0.0,0.0,-999,-99.99,,,-99.99,,2016-02-07 21:04:00,
2016-02-07 16:14:00,26.0,-99.9,-100.00,North,-9999,0.0,0.0,-999,-99.99,,,-99.99,,2016-02-07 21:14:00,
2016-02-07 16:24:00,26.0,-99.9,-100.00,North,-9999,0.0,0.0,-999,-99.99,,,-99.99,,2016-02-07 21:24:00,
2016-02-07 16:34:00,26.0,-99.9,-100.00,North,-9999,0.0,0.0,-999,-99.99,,,-99.99,,2016-02-07 21:34:00,
2016-02-07 17:04:00,24.0,-99.9,-100.00,North,-9999,0.0,0.0,-999,-99.99,,,-99.99,,2016-02-07 22:04:00,
2016-02-07 17:14:00,24.0,-99.9,-100.00,North,-9999,0.0,0.0,-999,-99.99,,,-99.99,,2016-02-07 22:14:00,